Tracking 19181 objects as of 17-Jun-2018
HD Live streaming from Space Station
objects crossing your sky now

FENGYUN 1C DEB

Track FENGYUN 1C DEB now!
10-day predictions


NORAD ID: 35160
Int'l Code: 1999-025DMQ
Perigee: 661.9 km
Apogee: 930.9 km
Inclination: 99.1 °
Period: 100.6 minutes
Semi major axis: 7167 km
RCS: 0.0084 m2 (small)
Launch date: May 10, 1999
Source: People's Republic of China (PRC)
Launch site: Taiyaun Space Center, China (TSC)

Note: This is SATELLITE DEBRIS
aabbcc
Your satellite tracking list
Your tracking list is empty




NASA's NSSDC Master Catalog

Two Line Element Set (TLE):
1 35160U 99025DMQ 18167.53554015 +.00000089 +00000-0 +45782-4 0  9998
2 35160 099.1420 082.0437 0187694 248.6864 109.4189 14.30743984257682
Source of the keplerian elements: AFSPC